Flag for Germany Weather past 2 weeks in Fürstenwalde/Spree, Brandenburg, Germany

Now
39 °F

Overcast.


Feels Like: 32 °F
Forecast: 42 / 49 °F
Wind: 10 mph from West

Location: Lindenberg

Current Time: Dec 21, 2014 at 2:12:26 AM

Latest Report: Dec 21, 2014 at 1:00 AM


Visibility: 19 mi

Pressure: 29.96 "Hg

Humidity: 85%

Dew point: 35 °F

Location of Fürstenwalde/SpreeLocation

Historic Weather in Fürstenwalde/Spree — Graph

°F

Fürstenwalde/Spree temperature yesterday

Maximum temperature yesterday: 44 °F (at 12:00 PM)
Minimum temperature yesterday: 33 °F (at 5:00 PM)
Average temperature yesterday: 40 °F

Past Weeks' High & Low Weather Summary

 TemperatureHumidityPressure
High54 °F (Dec 19, 9:00 AM)100% (Dec 6, 1:00 AM)30.40 "Hg (Dec 6, 1:00 AM)
Low27 °F (Dec 9, 8:00 AM)66% (Dec 13, 3:00 PM)29.41 "Hg (Dec 12, 8:00 PM)
Average39 °F90%29.92 "Hg
* Reported Dec 6 1:00 AM — Dec 21 1:00 AM, Fürstenwalde/Spree, Weather by CustomWeather, © 2014

Note: Actual official high and low records may vary slightly from our data, if they occured in-between our weather recording intervals... More about our weather records

Advertising

Fürstenwalde/Spree weather history for previous 24 hours

 ConditionsComfort  
Time TempWeatherWind HumidityBarometerVisibility
1:00 AM
Dec 21
39 °FOvercast.10 mph85%29.96 "Hg19 mi
12:00 AM39 °FOvercast.9 mph84%29.93 "Hg25 mi
11:00 PM
Dec 20
39 °FOvercast.8 mph86%29.91 "Hg31 mi
9:00 PM38 °FOvercast.10 mph94%29.84 "Hg19 mi
8:00 PM38 °FOvercast.10 mph94%29.82 "Hg19 mi
7:00 PM36 °FOvercast.9 mph96%29.81 "Hg25 mi
6:00 PM34 °FLow clouds.8 mph97%29.80 "Hg25 mi
5:00 PM33 °FLight rain. Low clouds.8 mph99%29.79 "Hg9 mi
4:00 PM34 °FThundershowers. Low clouds.10 mph96%29.79 "Hg1 mi
3:00 PM41 °FLight rain. Overcast.13 mph82%29.76 "Hg11 mi
2:00 PM42 °FLight rain. Overcast.10 mph81%29.79 "Hg7 mi
1:00 PM43 °FLight rain. Overcast.13 mph75%29.82 "Hg12 mi
12:00 PM44 °FOvercast.12 mph72%29.85 "Hg25 mi
11:00 AM43 °FOvercast.12 mph73%29.86 "Hg22 mi
9:00 AM43 °FOvercast.10 mph68%29.90 "Hg31 mi
8:00 AM43 °FOvercast.9 mph69%29.89 "Hg31 mi
7:00 AM43 °FOvercast.9 mph72%29.91 "Hg25 mi
6:00 AM43 °FOvercast.13 mph74%29.91 "Hg22 mi
5:00 AM42 °FOvercast.9 mph75%29.91 "Hg25 mi
3:00 AM41 °FOvercast.8 mph82%29.90 "Hg25 mi
2:00 AM40 °FOvercast.8 mph88%29.90 "Hg12 mi
Weather by CustomWeather, © 2014

See weather overviewHow to use our weather pages